Honolulu, HI

1:58 PM HST on August 30, 2016 (GMT -1000)
Honolulu International

Weather History for PHNL - May, 2013

Change the Weather History Date:

Friday, May 3, 2013

  Actual Average Record
Temperature  
Mean Temperature 76 °F 77 °F  
Max Temperature 82 °F 84 °F 87 °F (1974)
Min Temperature 69 °F 70 °F 60 °F (1989)
Degree Days  
Heating Degree Days 0 0  
Month to date heating degree days 0 0  
Since 1 July heating degree days 0 0  
Cooling Degree Days 11 12  
Month to date cooling degree days 37 36  
Year to date cooling degree days 1125 1143  
Growing Degree Days 25 (Base 50)    
Moisture  
Dew Point 64 °F    
Average Humidity 71    
Maximum Humidity 84    
Minimum Humidity 58    
Precipitation  
Precipitation 0.00 in 0.02 in 0.33 in (1988)
Month to date precipitation 0.01 0.07  
Year to date precipitation 7.78 7.02  
Snow  
Snow 0.00 in - - ()
Month to date snowfall 0.0  
Since 1 July snowfall 0.0  
Snow Depth 0.00 in    
Sea Level Pressure  
Sea Level Pressure 30.03 in    
Wind  
Wind Speed 6 mph (SE)    
Max Wind Speed 15 mph    
Max Gust Speed 20 mph    
Visibility 10 miles    
Events      
T = Trace of Precipitation, MM = Missing Value Source: NWS Daily Summary

Daily Weather History Graph

Daily Weather History Graph

Search for Another Location

Airport or City:

Trip Planner

Search our weather history database for the weather conditions in past years. The results will help you decide how hot, cold, wet, or windy it might be!

Date:

Astronomy

May. 03, 2013 Rise Set
Actual Time 5:59 AM HST 6:57 PM HST
Civil Twilight 5:35 AM HST 7:21 PM HST
Nautical Twilight 5:08 AM HST 7:49 PM HST
Astronomical Twilight 4:40 AM HST 8:17 PM HST
Moon 1:45 AM HST (5/3) 1:46 PM HST (5/3)
Length of Visible Light 13h 45m
Length of Day
12h 58m
Waning Crescent, 34% of the Moon is Illuminated
May 3
Waning Crescent
May 9
New
May 17
First Quarter
May 24
Full
May 31
Last Quarter

Hourly Weather History & Observations

Time (HST) Temp. Heat Index Dew Point Humidity Pressure Visibility Wind Dir Wind Speed Gust Speed Precip Events Conditions
12:53 AM 72.0 °F - 63.0 °F 73% 30.06 in 10.0 mi North 3.5 mph - N/A   Partly Cloudy
1:53 AM 70.0 °F - 63.0 °F 78% 30.05 in 10.0 mi Calm Calm - N/A   Partly Cloudy
2:53 AM 70.0 °F - 64.0 °F 81% 30.04 in 10.0 mi Calm Calm - N/A   Partly Cloudy
3:53 AM 70.0 °F - 64.0 °F 81% 30.03 in 10.0 mi NW 3.5 mph - N/A   Partly Cloudy
4:53 AM 70.0 °F - 63.0 °F 78% 30.04 in 10.0 mi NW 4.6 mph - N/A   Partly Cloudy
5:53 AM 72.0 °F - 64.0 °F 76% 30.05 in 10.0 mi NNW 3.5 mph - N/A   Mostly Cloudy
6:53 AM 73.9 °F - 64.0 °F 71% 30.05 in 10.0 mi East 6.9 mph - N/A   Scattered Clouds
7:53 AM 75.9 °F - 64.0 °F 67% 30.07 in 10.0 mi Variable 3.5 mph - N/A   Scattered Clouds
8:53 AM 79.0 °F - 62.1 °F 56% 30.07 in 10.0 mi East 5.8 mph - N/A   Scattered Clouds
9:53 AM 80.1 °F 81.7 °F 64.0 °F 58% 30.07 in 10.0 mi SSW 10.4 mph - N/A   Scattered Clouds
10:53 AM 79.0 °F - 66.0 °F 64% 30.06 in 10.0 mi SSE 11.5 mph - N/A   Mostly Cloudy
11:53 AM 81.0 °F 83.0 °F 66.0 °F 60% 30.05 in 10.0 mi SSE 12.7 mph - N/A   Scattered Clouds
12:53 PM 81.0 °F 83.0 °F 66.0 °F 60% 30.02 in 10.0 mi SSE 12.7 mph - N/A   Scattered Clouds
1:53 PM 81.0 °F 83.0 °F 66.0 °F 60% 30.02 in 10.0 mi South 10.4 mph - N/A   Scattered Clouds
2:53 PM 80.1 °F 82.1 °F 66.0 °F 62% 30.00 in 10.0 mi SSW 10.4 mph - N/A   Mostly Cloudy
3:53 PM 79.0 °F - 66.0 °F 64% 29.99 in 10.0 mi SSW 9.2 mph - N/A   Scattered Clouds
4:53 PM 78.1 °F - 64.9 °F 64% 29.99 in 10.0 mi South 5.8 mph - N/A   Scattered Clouds
5:53 PM 77.0 °F - 66.0 °F 69% 29.99 in 10.0 mi Variable 5.8 mph - N/A   Scattered Clouds
6:53 PM 75.9 °F - 64.9 °F 69% 30.00 in 10.0 mi SE 3.5 mph - N/A   Mostly Cloudy
7:53 PM 75.9 °F - 64.9 °F 69% 30.02 in 10.0 mi Calm Calm - N/A   Mostly Cloudy
8:53 PM 75.9 °F - 64.0 °F 67% 30.03 in 10.0 mi ESE 3.5 mph - N/A   Mostly Cloudy
9:53 PM 73.9 °F - 64.0 °F 71% 30.04 in 10.0 mi NNE 3.5 mph - N/A   Scattered Clouds
10:53 PM 73.9 °F - 64.0 °F 71% 30.04 in 10.0 mi NE 3.5 mph - N/A   Partly Cloudy
11:53 PM 73.0 °F - 63.0 °F 71% 30.02 in 10.0 mi NNW 3.5 mph - N/A   Partly Cloudy